Regional Weather Roundup
Issued by NWS

Home | Current Version | Previous Version | Graphics & Text | Print | Product List | Glossary On
Versions: 1 2 3 4 5 6 7 8 9 10 11 12 13 14 15 16 17 18 19 20 21 22 23 24 25 26 27 28 29 30 31 32 33 34 35 36 37 38 39 40 41 42 43 44 45 46 47 48 49 50
000
ASUS44 KMEG 031400
RWRTN
TENNESSEE HOURLY STATE WEATHER ROUNDUP
NATIONAL WEATHER SERVICE MEMPHIS TN
900 AM CDT FRI JUL 03 2015

TNZ002-004-019-021-049-052-054-088>092-031500-
WEST TENNESSEE

CITY           SKY/WX    TMP DP  RH WIND       PRES   REMARKS
MEMPHIS INTL   TSTM      72  70  93 CALM      29.97R FOG
NWS MEMPHIS      N/A     71 N/A N/A MISG        N/A
JACKSON        CLOUDY    74  70  87 SW6       29.93S
DYERSBURG        N/A    N/A N/A N/A MISG        N/A
PARIS          PTSUNNY   73  68  83 NW6       29.91R
LEXINGTON      PTSUNNY   73  72  94 SW8       29.92R
$$

TNZ008-025-027-028-033-062-065-066-031500-
NORTH MIDDLE TENNESSEE

CITY           SKY/WX    TMP DP  RH WIND       PRES   REMARKS
NASHVILLE      PTSUNNY   76  69  79 W6        29.91R
CLARKSVILLE    CLOUDY    73  69  87 W6        29.88R
COOKEVILLE       N/A     75  73  94 W6        29.92R
CROSSVILLE     CLOUDY    72  67  84 SW7       29.96R
$$

TNZ061-075-076-078-094-096-097-031500-
SOUTH MIDDLE TENNESSEE

CITY           SKY/WX    TMP DP  RH WIND       PRES   REMARKS
FAYETTEVILLE   CLOUDY    68  66  94 SW10      29.96S
TULLAHOMA      PTSUNNY   70  66  88 SW9       29.96R
WINCHESTER     MOSUNNY   72  68  88 SW3       29.96S
SHELBYVILLE    PTSUNNY  N/A N/A N/A MISG        N/A
$$

TNZ017-018-042-046-047-031500-
NORTHEAST TENNESSEE

CITY           SKY/WX    TMP DP  RH WIND       PRES   REMARKS
TRI CITIES     CLOUDY    72  68  87 S3        29.94R
ELIZABETHTON   SUNNY     72  66  83 E5        29.95S
$$

TNZ012-013-036-069-073-074-031500-
CENTRAL EAST TENNESSEE

CITY           SKY/WX    TMP DP  RH WIND       PRES   REMARKS
KNOXVILLE      CLOUDY    73  69  87 S12       29.92R
OAK RIDGE      CLOUDY    72  69  90 CALM      29.93S
GATLINBURG     CLOUDY    72  68  88 SW5       29.93R
$$

TNZ083-085-099-031500-
SOUTHEAST TENNESSEE

CITY           SKY/WX    TMP DP  RH WIND       PRES   REMARKS
CHATTANOOGA    LGT RAIN  75  70  84 SW9       29.95R FOG
$$

SKY/WX REPORTED AS FAIR MEANS FEW OR NO CLOUDS BELOW
12 THOUSAND FEET.




USA.gov is the U.S. government's official web portal to all federal, state and local government web resources and services.